Printer-friendly version

IAU Minor Planet Center

Minor Planet Center

(44) Nysa

Orbital Elements

The following orbital elements are taken from MPO 3854
   (44) Nysa
Epoch 2005 Jan. 30.0 TT = JDT 2453400.5                 Goffin
M 165.25063              (2000.0)            P               Q
n   0.26131454     Peri.  342.50081     -0.40896142     -0.91127311
a   2.4230386      Node   131.60933     +0.84478509     -0.39807249
e   0.1488552      Incl.    3.70302     +0.34509232     -0.10544957
P   3.77           H    7.03          G   0.46           U   0
From 1410 observations at 81 oppositions, 1857-2000, mean residual 0".52.
An explanation of the orbital elements is available.

These orbital elements are also available in forms suitable for loading into a number of popular planetarium-type software programs.


Ephemeris

The following ephemeris is at intervals of five days. A daily ephemeris covering the same time interval is also available.

Personalized ephemerides for this object (and others) can be generated using the MPES.

Date    TT    R. A. (2000) Decl.     Delta      r     Elong.  Phase     V
 
2005 05 21    21 52.96   -12 20.6    2.518    2.775    93.8    21.3    11.9
2005 05 26    21 56.35   -12 06.3    2.449    2.774    97.8    21.2    11.9
2005 05 31    21 59.31   -11 54.4    2.381    2.772   101.8    21.0    11.8
2005 06 05    22 01.81   -11 45.2    2.313    2.770   106.0    20.6    11.7
2005 06 10    22 03.80   -11 38.8    2.247    2.768   110.3    20.1    11.7
2005 06 15    22 05.27   -11 35.6    2.183    2.766   114.7    19.5    11.6
2005 06 20    22 06.19   -11 35.6    2.121    2.763   119.2    18.7    11.5
2005 06 25    22 06.53   -11 39.1    2.061    2.761   124.0    17.8    11.4
2005 06 30    22 06.28   -11 46.2    2.005    2.758   128.8    16.7    11.3
2005 07 05    22 05.41   -11 56.9    1.952    2.756   133.9    15.4    11.2
2005 07 10    22 03.93   -12 11.3    1.903    2.753   139.0    14.0    11.1
2005 07 15    22 01.84   -12 29.1    1.859    2.750   144.4    12.4    11.1
2005 07 20    21 59.18   -12 50.2    1.820    2.747   149.9    10.7    11.0
2005 07 25    21 55.98   -13 14.2    1.787    2.743   155.5     8.8    10.9
2005 07 30    21 52.29   -13 40.5    1.759    2.740   161.3     6.8    10.8
2005 08 04    21 48.20   -14 08.7    1.738    2.737   167.2     4.7    10.7
2005 08 09    21 43.81   -14 38.1    1.724    2.733   173.1     2.6    10.6
2005 08 14    21 39.23   -15 07.8    1.716    2.729   178.7     0.5    10.4
2005 08 19    21 34.59   -15 37.1    1.716    2.725   174.7     2.0    10.5
2005 08 24    21 30.03   -16 05.3    1.722    2.721   168.8     4.2    10.6
2005 08 29    21 25.66   -16 31.7    1.736    2.717   162.8     6.3    10.7
2005 09 03    21 21.60   -16 55.9    1.755    2.713   156.9     8.4    10.8
2005 09 08    21 17.98   -17 17.2    1.782    2.708   151.2    10.3    10.9
2005 09 13    21 14.87   -17 35.4    1.814    2.704   145.5    12.2    11.0
2005 09 18    21 12.36   -17 50.4    1.851    2.699   140.0    13.8    11.0
2005 09 23    21 10.48   -18 02.0    1.893    2.694   134.6    15.4    11.1
2005 09 28    21 09.26   -18 10.2    1.939    2.689   129.4    16.7    11.2
2005 10 03    21 08.73   -18 15.0    1.989    2.684   124.4    17.9    11.3
2005 10 08    21 08.86   -18 16.6    2.042    2.679   119.5    19.0    11.4
2005 10 13    21 09.67   -18 14.9    2.098    2.674   114.7    19.8    11.4
2005 10 18    21 11.11   -18 10.2    2.156    2.668   110.1    20.5    11.5
2005 10 23    21 13.16   -18 02.6    2.216    2.663   105.6    21.1    11.6
2005 10 28    21 15.78   -17 52.1    2.277    2.657   101.3    21.5    11.6
2005 11 02    21 18.93   -17 38.9    2.339    2.651    97.1    21.8    11.7
2005 11 07    21 22.60   -17 23.0    2.402    2.645    93.0    22.0    11.8

Back to Bright Minor Planets

Astronomical Headlines Index

MPC


Valid HTML 4.01!